Deelen, Netherlands

3:54 PM CET on December 03, 2016 (GMT +0100)
Deelen Air Base

Weather History for EHDL - March, 2014

Change the Weather History Date:

Friday, March 21, 2014

  Actual Average Record
Temperature  
Mean Temperature 45 °F -  
Max Temperature 53 °F 48 °F 62 °F (2012)
Min Temperature 37 °F 35 °F 23 °F (2009)
Degree Days  
Heating Degree Days 20    
Moisture  
Dew Point 42 °F    
Average Humidity 84    
Maximum Humidity 100    
Minimum Humidity 60    
Precipitation  
Precipitation 0.00 in - - ()
Sea Level Pressure  
Sea Level Pressure 29.72 in    
Wind  
Wind Speed 9 mph ()    
Max Wind Speed 15 mph    
Max Gust Speed -    
Visibility 6.3 miles    
Events Rain    
Averages and records for this station are not official NWS values.
T = Trace of Precipitation, MM = Missing Value Source: Averaged Metar Reports

Daily Weather History Graph

Daily Weather History Graph

Search for Another Location

Airport or City:

Trip Planner

Search our weather history database for the weather conditions in past years. The results will help you decide how hot, cold, wet, or windy it might be!

Date:

Astronomy

Mar. 21, 2014 Rise Set
Actual Time 6:37 AM CET 6:51 PM CET
Civil Twilight 6:03 AM CET 7:24 PM CET
Nautical Twilight 5:23 AM CET 8:05 PM CET
Astronomical Twilight 4:42 AM CET 8:46 PM CET
Moon No Moon Rise 8:44 AM CET (3/21)
Length of Visible Light 13h 21m
Length of Day
12h 13m
Waning Gibbous, 77% of the Moon is Illuminated
Mar 21
Waning Gibbous
Mar 24
Last Quarter
Mar 30
New
Apr 7
First Quarter
Apr 15
Full

Hourly Weather History & Observations

Time (CET) Temp. Windchill Dew Point Humidity Pressure Visibility Wind Dir Wind Speed Gust Speed Precip Events Conditions
12:00 AM 49 °F - 43 °F 74% 29.72 in 9 mi SW 6.7 mph - -   Scattered Clouds
12:25 AM 48.2 °F - 42.8 °F 82% 29.71 in 6.2 mi SW 5.8 mph - N/A   Partly Cloudy
12:55 AM 48.2 °F - 44.6 °F 87% 29.68 in 6.2 mi SW 9.2 mph - N/A   Scattered Clouds
1:00 AM 49 °F - 44 °F 76% 29.70 in 7 mi SW 8.9 mph - -   Partly Cloudy
1:25 AM 50.0 °F - 44.6 °F 82% 29.68 in 6.2 mi SW 9.2 mph - N/A   Unknown
1:55 AM 51.8 °F - 44.6 °F 76% 29.68 in 6.2 mi WSW 15.0 mph - N/A   Mostly Cloudy
2:00 AM 53 °F - 44 °F 64% 29.70 in 9 mi WSW 13.4 mph - -   Mostly Cloudy
2:25 AM 51.8 °F - 44.6 °F 76% 29.68 in 6.2 mi WSW 13.8 mph - N/A   Overcast
2:55 AM 51.8 °F - 44.6 °F 76% 29.68 in 6.2 mi SW 11.5 mph - N/A   Overcast
3:00 AM 52 °F - 45 °F 68% 29.69 in 9 mi SW 11.2 mph - -   Overcast
3:25 AM 51.8 °F - 44.6 °F 76% 29.68 in 6.2 mi SW 10.4 mph - N/A   Overcast
3:55 AM 51.8 °F - 44.6 °F 76% 29.68 in 6.2 mi SW 13.8 mph - N/A   Overcast
4:00 AM 52 °F - 45 °F 71% 29.69 in 9 mi SW 13.4 mph - -   Overcast
4:25 AM 51.8 °F - 46.4 °F 82% 29.68 in 6.2 mi SW 13.8 mph - N/A   Overcast
4:55 AM 50.0 °F - 48.2 °F 94% 29.68 in 1.7 mi SW 12.7 mph - N/A   Heavy Drizzle
5:00 AM 49 °F - 48 °F 94% 29.69 in 1 mi SW 11.2 mph - - Rain Drizzle
5:25 AM 48.2 °F - 48.2 °F 100% 29.68 in 1.3 mi SW 11.5 mph - N/A   Heavy Drizzle
5:55 AM 48.2 °F - 48.2 °F 100% 29.68 in 1.2 mi SSW 9.2 mph - N/A Rain Light Rain
6:00 AM 49 °F - 48 °F 96% 29.68 in 1 mi SSW 11.2 mph - - Rain Light Rain
6:25 AM 48.2 °F - 48.2 °F 100% 29.68 in 1.4 mi SSW 12.7 mph - N/A   Heavy Drizzle
6:55 AM 50.0 °F - 48.2 °F 94% 29.65 in - SSW 13.8 mph - N/A Rain Light Rain
7:00 AM 49 °F - 48 °F 97% 29.67 in 3 mi SSW 13.4 mph - - Rain Rain
7:25 AM 50.0 °F - 48.2 °F 94% 29.65 in - SSW 9.2 mph - N/A Rain Light Rain
7:55 AM 50.0 °F - 48.2 °F 94% 29.65 in - SSW 8.1 mph - N/A Rain Light Rain
8:00 AM 49 °F - 48 °F 97% 29.67 in 3 mi SSW 8.9 mph - - Rain Heavy Rain
8:25 AM 50.0 °F - 48.2 °F 94% 29.65 in - SSW 9.2 mph - N/A Rain Light Rain Showers
8:55 AM 46.4 °F 41.1 °F 44.6 °F 93% 29.65 in 3.7 mi West 11.5 mph - N/A Rain Light Rain
9:00 AM 45 °F - 43 °F 92% 29.67 in 4 mi NW 13.4 mph - - Rain Rain
9:25 AM 44.6 °F 40.2 °F 44.6 °F 100% 29.65 in 5.6 mi NW 8.1 mph - N/A Rain Light Rain
9:55 AM 44.6 °F 41.4 °F 44.6 °F 100% 29.65 in 6.2 mi NNW 5.8 mph - N/A Rain Light Rain
10:00 AM - - - % 29.67 in 9 mi NNW 4.5 mph - - Rain Light Rain
10:25 AM 44.6 °F 43.1 °F 44.6 °F 100% 29.65 in 6.2 mi NW 3.5 mph - N/A Rain Light Rain
10:55 AM 44.6 °F - 44.6 °F 100% 29.65 in 6.2 mi North 2.3 mph - N/A Rain Light Rain
11:00 AM 45 °F - 44 °F 95% 29.67 in 11 mi NW 2.2 mph - - Rain Heavy Rain
11:25 AM 44.6 °F 43.1 °F 44.6 °F 100% 29.65 in 3.7 mi West 3.5 mph - N/A Rain Rain
11:55 AM 44.6 °F 41.4 °F 44.6 °F 100% 29.65 in 3.7 mi West 5.8 mph - N/A Rain Light Rain Showers
12:00 PM 45 °F - 44 °F 96% 29.68 in 4 mi West 6.7 mph - - Rain Rain
12:25 PM 44.6 °F 40.2 °F 42.8 °F 93% 29.68 in 6.2 mi West 8.1 mph - N/A Rain Light Rain
12:55 PM 44.6 °F 39.2 °F 41.0 °F 87% 29.71 in 4.3 mi WNW 10.4 mph - N/A Rain Light Rain Showers
1:00 PM 43 °F - 42 °F 93% 29.73 in 4 mi West 11.2 mph - - Rain Rain
1:25 PM 42.8 °F 35.8 °F 41.0 °F 93% 29.74 in 5.0 mi West 13.8 mph - N/A   Drizzle
1:55 PM 42.8 °F 35.4 °F 41.0 °F 93% 29.74 in 6.2 mi West 15.0 mph - N/A   Overcast
2:00 PM 44 °F - 42 °F 88% 29.76 in 22 mi West 11.2 mph - - Rain Rain Showers
2:25 PM 44.6 °F 39.7 °F 41.0 °F 87% 29.77 in 6.2 mi West 9.2 mph - N/A   Mostly Cloudy
2:55 PM 44.6 °F 39.2 °F 41.0 °F 87% 29.77 in 6.2 mi West 10.4 mph - N/A   Mostly Cloudy
3:00 PM 44 °F - 41 °F 83% 29.80 in 22 mi West 8.9 mph - -   Unknown Precipitation
3:25 PM 46.4 °F 42.4 °F 42.8 °F 87% 29.77 in 6.2 mi SW 8.1 mph - N/A   Mostly Cloudy
3:55 PM 48.2 °F - 41.0 °F 76% 29.80 in 6.2 mi WSW 11.5 mph - N/A   Mostly Cloudy
4:00 PM 48 °F - 40 °F 64% 29.81 in 19 mi WSW 13.4 mph - -   Partly Cloudy
4:25 PM 46.4 °F 42.9 °F 41.0 °F 81% 29.80 in 6.2 mi WSW 6.9 mph - N/A   Overcast
4:55 PM 48.2 °F - 39.2 °F 71% 29.80 in 6.2 mi WSW 12.7 mph - N/A   Partly Cloudy
5:00 PM 47 °F - 39 °F 65% 29.81 in 19 mi WSW 11.2 mph - -   Partly Cloudy
5:25 PM 46.4 °F 41.5 °F 39.2 °F 76% 29.80 in 6.2 mi WSW 10.4 mph - N/A   Partly Cloudy
5:55 PM 46.4 °F 41.5 °F 37.4 °F 71% 29.80 in 6.2 mi WSW 10.4 mph - N/A   Partly Cloudy
6:00 PM 47 °F - 37 °F 60% 29.82 in 22 mi WSW 8.9 mph - -   Partly Cloudy
6:25 PM 44.6 °F 39.7 °F 35.6 °F 71% 29.80 in 6.2 mi SW 9.2 mph - N/A   Unknown
6:55 PM 42.8 °F 39.3 °F 35.6 °F 76% 29.80 in 6.2 mi SSW 5.8 mph - N/A   Partly Cloudy
7:00 PM 44 °F - 35 °F 61% 29.82 in 25 mi SSW 6.7 mph - -   Partly Cloudy
7:25 PM 41.0 °F 37.1 °F 33.8 °F 76% 29.80 in 6.2 mi South 5.8 mph - N/A   Unknown
7:55 PM 41.0 °F 37.1 °F 33.8 °F 76% 29.80 in 6.2 mi South 5.8 mph - N/A   Partly Cloudy
8:00 PM 41 °F - 34 °F 66% 29.82 in 25 mi South 4.5 mph - -   Scattered Clouds
8:25 PM 41.0 °F 37.1 °F 33.8 °F 76% 29.80 in 6.2 mi South 5.8 mph - N/A   Partly Cloudy
8:55 PM 37.4 °F 32.8 °F 33.8 °F 87% 29.80 in 6.2 mi SSE 5.8 mph - N/A   Partly Cloudy
9:00 PM 38 °F - 33 °F 77% 29.81 in 25 mi SSE 6.7 mph - -   Scattered Clouds
9:25 PM 37.4 °F 32.8 °F 33.8 °F 87% 29.77 in 6.2 mi SSE 5.8 mph - N/A   Partly Cloudy
9:55 PM 37.4 °F 33.8 °F 33.8 °F 87% 29.77 in 6.2 mi SSE 4.6 mph - N/A   Unknown
10:00 PM 37 °F - 33 °F 81% 29.79 in 16 mi SSE 4.5 mph - -   Scattered Clouds
10:25 PM 39.2 °F 34.2 °F 33.8 °F 81% 29.77 in 6.2 mi South 6.9 mph - N/A   Partly Cloudy
10:55 PM 39.2 °F 34.2 °F 33.8 °F 81% 29.77 in 6.2 mi South 6.9 mph - N/A   Unknown
11:00 PM 39 °F - 34 °F 75% 29.77 in 12 mi South 6.7 mph - -   Scattered Clouds
11:25 PM 39.2 °F 35.0 °F 33.8 °F 81% 29.74 in 6.2 mi South 5.8 mph - N/A   Partly Cloudy
11:55 PM 39.2 °F 34.2 °F 33.8 °F 81% 29.74 in 6.2 mi South 6.9 mph - N/A   Partly Cloudy